Lid_Strength_Index
9 8 8 9 9 9 10 10 12 11 10 8 7 7 6 5 4 4 4 4 4 4 4 3 3 3 2 2 2 2 2 2 3 3 3 4 4 4 5 5 5 6 8 8
11 9 9 10 9 9 9 9 9 9 9 6 5 6 6 5 5 5 4 4 3 3 3 3 3 3 3 3 2 2 2 3 3 3 3 3 4 4 5 6 8 8 8 8
14 10 10 13 10 9 8 8 8 10 8 6 6 6 6 5 5 5 4 4 4 4 4 3 3 3 3 2 2 2 3 4 3 3 4 4 5 6 7 8 8 8 7 7
15 13 18 10 7 7 8 8 7 7 6 6 6 5 4 4 4 5 4 4 4 4 3 3 2 3 3 2 3 4 4 4 4 4 5 6 5 6 7 7 8 8 8 8
16 15 12 9 8 8 9 9 6 7 6 6 5 5 5 4 3 4 4 4 3 3 3 3 3 3 3 4 4 4 5 4 4 5 5 5 6 7 7 7 7 8 7 7
15 17 18 11 7 5 6 12 6 6 6 6 5 10 7 4 4 4 3 3 3 3 3 3 3 4 4 5 5 5 5 5 4 4 5 5 6 6 6 6 6 7 7 7
15 16 13 8 6 5 12 11 5 5 5 5 6 6 5 4 4 3 3 3 3 3 3 4 3 4 5 5 6 5 4 4 4 4 5 6 6 6 6 7 7 9 9 9
14 16 18 6 7 10 7 6 5 5 5 4 4 5 5 4 4 4 4 4 3 4 4 4 4 4 5 6 5 4 4 5 5 6 6 6 6 7 7 8 10 10 11 11
12 13 8 7 6 5 5 5 5 5 4 4 5 5 4 4 4 4 4 4 3 4 4 4 4 4 6 5 5 5 6 6 7 7 7 8 8 9 10 10 11 13 13 13
11 8 8 7 5 5 4 5 4 4 4 4 5 5 5 4 4 4 4 4 4 4 5 5 5 4 5 5 6 6 8 8 9 9 9 9 11 11 12 13 13 14 14 15
9 8 7 6 5 5 5 4 4 4 4 4 4 4 4 5 4 4 4 4 4 5 5 5 5 6 6 6 7 8 9 9 10 10 11 12 15 14 15 16 15 15 16 15
11 7 7 7 5 4 5 5 4 4 4 4 4 4 4 4 4 4 4 4 5 5 6 6 6 7 7 7 8 9 10 11 12 12 13 13 14 15 15 15 16 16 16 16
7 5 5 5 4 4 4 4 4 4 4 4 3 3 4 4 4 5 4 5 6 7 7 8 8 9 8 8 9 11 12 12 13 14 14 15 14 15 17 16 15 16 16 17
5 5 6 5 6 5 5 5 4 3 3 3 3 4 5 5 5 5 6 6 7 8 9 10 11 12 11 12 13 14 14 14 14 15 15 14 14 15 15 16 17 17 16 16
5 5 5 5 5 5 5 5 6 5 4 4 4 5 5 6 7 7 7 8 9 11 13 14 15 15 14 14 15 15 15 15 15 16 16 16 15 16 16 16 16 16 16 17
6 5 5 6 6 6 6 6 7 6 6 6 6 6 7 7 9 10 11 12 14 15 16 17 17 16 15 16 17 17 17 17 16 16 16 16 16 17 17 17 17 17 16 16
8 8 8 7 6 7 7 7 7 7 7 10 11 13 15 16 17 17 18 18 18 18 18 18 18 17 17 16 16 16 17 18 18 17 17 17 17 17 17 17 17 17 16 19
9 9 10 9 8 9 11 12 12 12 13 15 16 17 18 18 19 19 19 19 19 20 19 18 18 18 18 18 18 18 18 18 18 18 18 18 19 18 18 18 17 17 17 17
12 12 12 13 12 13 14 15 15 15 16 17 18 19 18 18 19 19 19 20 21 21 21 19 19 20 20 19 18 18 19 19 19 19 19 20 19 18 18 18 18 18 18 17
14 14 14 14 14 14 15 16 16 17 17 18 17 18 19 18 18 19 19 21 20 20 19 19 19 20 20 20 19 19 19 19 19 19 18 20 19 19 19 19 18 18 17 16
16 16 16 16 17 17 17 17 18 18 17 18 19 20 19 19 19 19 20 21 20 19 19 19 19 20 20 20 19 18 18 19 19 19 19 19 19 19 19 19 18 17 16 16
16 17 17 17 17 17 17 17 17 18 18 18 18 18 19 19 19 19 19 20 19 18 19 19 20 21 20 20 18 18 19 19 19 19 19 19 19 19 19 18 18 17 17 18
17 17 17 18 18 18 18 18 18 18 18 18 18 18 18 18 17 19 20 18 17 18 19 20 21 21 21 19 18 19 19 19 19 19 19 19 18 18 18 18 18 18 18 18
16 16 16 16 16 17 18 17 17 17 17 17 18 18 17 18 18 18 18 18 18 19 19 19 21 21 22 18 18 19 19 19 19 18 18 18 17 17 17 18 18 18 18 19
17 17 17 17 17 17 16 16 16 16 16 17 17 17 17 16 17 17 17 18 18 17 19 21 20 20 18 18 18 18 18 18 18 19 18 18 18 18 18 17 18 19 19 21
17 18 18 18 18 17 17 17 18 18 16 17 17 16 16 16 16 16 16 17 17 17 17 17 18 18 17 18 18 18 17 17 17 17 18 18 18 19 19 18 18 19 19 19
17 16 17 17 16 16 17 17 17 17 17 16 16 15 15 15 16 16 16 16 16 16 17 17 16 17 17 17 17 17 17 17 17 18 18 19 19 19 19 19 19 20 20 20